Regional Weather Roundup
Issued by NWS

Home | Current Version | Previous Version | Graphics & Text | Print | Product List | Glossary On
Versions: 1 2 3 4 5 6 7 8 9 10 11 12 13 14 15 16 17 18 19 20 21 22 23 24 25 26 27 28 29 30 31 32 33 34 35 36 37 38 39 40 41 42 43 44 45 46 47 48 49 50
000
ASUS43 KFSD 262002
RWRSD

WEATHER ROUNDUP FOR SOUTH DAKOTA
NATIONAL WEATHER SERVICE SIOUX FALLS SD
300 PM CDT THU MAR 26 2015

NOTE: "FAIR" INDICATES FEW OR NO CLOUDS BELOW 12,000 FEET WITH NO
SIGNIFICANT WEATHER AND/OR OBSTRUCTIONS TO VISIBILITY.


SDZ001>005-009-010-012>017-262100-
NORTHWEST AND NORTH CENTRAL SOUTH DAKOTA

CITY           SKY/WX    TMP DP  RH WIND       PRES   REMARKS
BUFFALO          N/A     46  27  47 NE7       30.06F
FAITH            N/A     34  29  82 E9        30.16S WCI  27
MOBRIDGE       CLOUDY    39  25  57 E5        30.17F
$$

SDZ012>016-024>037-041>051-057-063-072>074-262100-
SOUTHWEST AND SOUTH CENTRAL SOUTH DAKOTA

CITY           SKY/WX    TMP DP  RH WIND       PRES   REMARKS
RAPID CTY ARPT PTSUNNY   49  29  46 N20       30.11R
PIERRE         CLOUDY    34  31  88 CALM      30.18F
CUSTER         PTSUNNY   43  23  45 NW18G29   30.07F
ELLSWORTH AFB  CLOUDY    46  28  49 N16       30.10S
PHILIP         PTSUNNY   41  29  62 E13       30.15S
PINE RIDGE     CLOUDY    53  27  36 N15G25    30.07F
SPEARFISH      FAIR      46  28  49 N17       30.12S
WINNER         CLOUDY    33  29  85 NE12      30.16R WCI  24
$$

SDZ004>011-016>023-039-040-262100-
NORTHEAST SOUTH DAKOTA

CITY           SKY/WX    TMP DP  RH WIND       PRES   REMARKS
ABERDEEN       CLOUDY    37  19  48 N16G24    30.22F
WATERTOWN      CLOUDY    35  18  49 N15       30.16F WCI  25
SISSETON         N/A     34  19  54 N17G28    30.19F WCI  23
$$

SDZ017-020-022-023-036>040-048>070-262100-
SOUTHEAST SOUTH DAKOTA

CITY           SKY/WX    TMP DP  RH WIND       PRES   REMARKS
SIOUX FALLS    CLOUDY    39  22  50 N10       30.14F
HURON          CLOUDY    40  23  50 N10       30.18F
MITCHELL       LGT SNOW  37  28  70 N10       30.19S
YANKTON        CLOUDY    37  23  56 NE12      30.17S
$$

ABBREVIATIONS USED IN REMARKS
   TC - TEMPERATURE IN CELSIUS
  WCI - WIND CHILL INDEX
   HX - HEAT INDEX
  VSB - VISIBILITY



USA.gov is the U.S. government's official web portal to all federal, state and local government web resources and services.